Weather History for Clarinda, IA

Change the Weather History Date:

Thursday, March 21, 2013

  Actual Average Record
Temperature  
Mean Temperature 22 °F -  
Max Temperature 33 °F 51 °F 71 °F (2007)
Min Temperature 12 °F 28 °F 12 °F (2013)
Degree Days  
Heating Degree Days 42    
Moisture  
Dew Point 11 °F    
Average Humidity 60    
Maximum Humidity 92    
Minimum Humidity 35    
Precipitation  
Precipitation 0.00 in - - ()
Sea Level Pressure  
Sea Level Pressure 30.02 in    
Wind  
Wind Speed 3 mph (ESE)    
Max Wind Speed 9 mph    
Max Gust Speed -    
Visibility 10 miles    
Events      
Averages and records for this station are not official NWS values.
T = Trace of Precipitation, MM = Missing Value Source: NWS Daily Summary

Daily Weather History Graph

Daily Weather History Graph

Search for Another Location

Airport:

Trip Planner

Search our weather history database for the weather conditions in past years. The results will help you decide how hot, cold, wet, or windy it might be!

Date:

Astronomy

Mar. 21, 2013 Rise Set
Actual Time 7:21 AM CDT 7:33 PM CDT
Civil Twilight 6:54 AM CDT 8:00 PM CDT
Nautical Twilight 6:22 AM CDT 8:33 PM CDT
Astronomical Twilight 5:49 AM CDT 9:05 PM CDT
Moon 2:02 PM CDT (3/21) 3:45 AM CDT (3/21)
Length of Visible Light 13h 06m
Length of Day
12h 12m
Waxing Gibbous, 69% of the Moon is Illuminated
Mar 21
Waxing Gibbous
Mar 27
Full
Apr 2
Last Quarter
Apr 10
New
Apr 18
First Quarter

Hourly Weather History & Observations

Time (CDT) Temp. Windchill Dew Point Humidity Pressure Visibility Wind Dir Wind Speed Gust Speed Precip Events Conditions
12:15 AM 15.8 °F - 10.4 °F 79% 30.12 in 10.0 mi Calm Calm - N/A   Clear
12:35 AM 12.2 °F - 8.6 °F 85% 30.11 in 10.0 mi Calm Calm - N/A   Clear
12:55 AM 12.2 °F - 10.4 °F 92% 30.11 in 10.0 mi Calm Calm - N/A   Clear
1:15 AM 12.2 °F - 10.4 °F 92% 30.10 in 10.0 mi Calm Calm - N/A   Clear
1:35 AM 12.2 °F - 10.4 °F 92% 30.11 in 10.0 mi Calm Calm - N/A   Clear
1:55 AM 12.2 °F - 10.4 °F 92% 30.11 in 10.0 mi Calm Calm - N/A   Clear
2:15 AM 15.8 °F - 12.2 °F 86% 30.11 in 10.0 mi Calm Calm - N/A   Clear
2:35 AM 15.8 °F - 12.2 °F 86% 30.11 in 10.0 mi Calm Calm - N/A   Clear
2:55 AM 15.8 °F - 12.2 °F 86% 30.11 in 10.0 mi Calm Calm - N/A   Clear
3:15 AM 15.8 °F - 12.2 °F 86% 30.10 in 10.0 mi Calm Calm - N/A   Clear
3:35 AM 17.6 °F 12.3 °F 12.2 °F 79% 30.09 in 10.0 mi NNE 3.5 mph - N/A   Clear
3:55 AM 17.6 °F 9.3 °F 12.2 °F 79% 30.08 in 10.0 mi NNE 5.8 mph - N/A   Clear
4:15 AM 17.6 °F - 12.2 °F 79% 30.08 in 10.0 mi Calm Calm - N/A   Clear
4:35 AM 17.6 °F - 12.2 °F 79% 30.08 in 10.0 mi Calm Calm - N/A   Clear
4:55 AM 17.6 °F 10.7 °F 12.2 °F 79% 30.08 in 10.0 mi East 4.6 mph - N/A   Clear
5:15 AM 17.6 °F 10.7 °F 12.2 °F 79% 30.07 in 10.0 mi East 4.6 mph - N/A   Clear
5:35 AM 17.6 °F 10.7 °F 10.4 °F 73% 30.07 in 10.0 mi East 4.6 mph - N/A   Clear
5:55 AM 17.6 °F 12.3 °F 10.4 °F 73% 30.07 in 10.0 mi East 3.5 mph - N/A   Clear
6:15 AM 17.6 °F 7.3 °F 10.4 °F 73% 30.06 in 10.0 mi East 8.1 mph - N/A   Clear
6:35 AM 17.6 °F 8.2 °F 10.4 °F 73% 30.07 in 10.0 mi East 6.9 mph - N/A   Clear
6:55 AM 17.6 °F 9.3 °F 10.4 °F 73% 30.07 in 10.0 mi East 5.8 mph - N/A   Mostly Cloudy
7:15 AM 17.6 °F 12.3 °F 10.4 °F 73% 30.07 in 10.0 mi East 3.5 mph - N/A   Overcast
7:55 AM 17.6 °F 8.2 °F 10.4 °F 73% 30.07 in 10.0 mi East 6.9 mph - N/A   Mostly Cloudy
8:15 AM 17.6 °F 10.7 °F 10.4 °F 73% 30.07 in 10.0 mi SE 4.6 mph - N/A   Mostly Cloudy
8:35 AM 17.6 °F 9.3 °F 10.4 °F 73% 30.07 in 10.0 mi ESE 5.8 mph - N/A   Mostly Cloudy
8:55 AM 17.6 °F 7.3 °F 12.2 °F 79% 30.07 in 10.0 mi SE 8.1 mph - N/A   Overcast
9:15 AM 19.4 °F 10.4 °F 10.4 °F 68% 30.07 in 10.0 mi ESE 6.9 mph - N/A   Overcast
9:35 AM 19.4 °F 10.4 °F 10.4 °F 68% 30.07 in 10.0 mi SE 6.9 mph - N/A   Mostly Cloudy
9:55 AM 19.4 °F 10.4 °F 10.4 °F 68% 30.07 in 10.0 mi ESE 6.9 mph - N/A   Scattered Clouds
10:15 AM 21.2 °F 12.6 °F 10.4 °F 63% 30.06 in 10.0 mi ESE 6.9 mph - N/A   Clear
10:35 AM 21.2 °F 13.6 °F 10.4 °F 63% 30.05 in 10.0 mi ESE 5.8 mph - N/A   Clear
10:55 AM 21.2 °F 12.6 °F 10.4 °F 63% 30.04 in 10.0 mi SE 6.9 mph - N/A   Scattered Clouds
11:15 AM 24.8 °F 17.9 °F 12.2 °F 59% 30.04 in 10.0 mi SE 5.8 mph - N/A   Scattered Clouds
11:35 AM 24.8 °F 19.1 °F 12.2 °F 59% 30.03 in 10.0 mi SE 4.6 mph - N/A   Mostly Cloudy
11:55 AM 24.8 °F 17.9 °F 12.2 °F 59% 30.02 in 10.0 mi SE 5.8 mph - N/A   Mostly Cloudy
12:15 PM 24.8 °F 17.9 °F 12.2 °F 59% 30.02 in 10.0 mi SE 5.8 mph - N/A   Overcast
12:35 PM 24.8 °F 20.5 °F 12.2 °F 59% 30.01 in 10.0 mi ESE 3.5 mph - N/A   Mostly Cloudy
12:55 PM 24.8 °F 20.5 °F 10.4 °F 54% 30.01 in 10.0 mi ESE 3.5 mph - N/A   Mostly Cloudy
1:15 PM 26.6 °F 20.0 °F 10.4 °F 51% 30.00 in 10.0 mi SE 5.8 mph - N/A   Scattered Clouds
1:35 PM 26.6 °F 17.5 °F 10.4 °F 51% 29.99 in 10.0 mi SE 9.2 mph - N/A   Clear
1:55 PM 28.4 °F 22.2 °F 10.4 °F 47% 29.97 in 10.0 mi East 5.8 mph - N/A   Scattered Clouds
2:15 PM 30.2 °F 24.3 °F 10.4 °F 44% 29.97 in 10.0 mi East 5.8 mph - N/A   Scattered Clouds
2:35 PM 30.2 °F 24.3 °F 8.6 °F 40% 29.95 in 10.0 mi East 5.8 mph - N/A   Scattered Clouds
2:55 PM 30.2 °F 22.6 °F 10.4 °F 44% 29.94 in 10.0 mi East 8.1 mph - N/A   Scattered Clouds
3:15 PM 32.0 °F 25.6 °F 10.4 °F 41% 29.94 in 10.0 mi East 6.9 mph - N/A   Scattered Clouds
3:35 PM 32.0 °F 26.4 °F 8.6 °F 38% 29.93 in 10.0 mi East 5.8 mph - N/A   Mostly Cloudy
3:55 PM 32.0 °F 26.4 °F 8.6 °F 38% 29.93 in 10.0 mi East 5.8 mph - N/A   Overcast
4:15 PM 33.8 °F 29.6 °F 10.4 °F 38% 29.93 in 10.0 mi East 4.6 mph - N/A   Mostly Cloudy
4:35 PM 33.8 °F 27.7 °F 10.4 °F 38% 29.93 in 10.0 mi ESE 6.9 mph - N/A   Mostly Cloudy
4:55 PM 33.8 °F 27.7 °F 8.6 °F 35% 29.92 in 10.0 mi SE 6.9 mph - N/A   Scattered Clouds
5:15 PM 32.0 °F 26.4 °F 8.6 °F 38% 29.92 in 10.0 mi SE 5.8 mph - N/A   Mostly Cloudy
5:35 PM 33.8 °F 29.6 °F 8.6 °F 35% 29.92 in 10.0 mi ESE 4.6 mph - N/A   Overcast
5:55 PM 33.8 °F 30.8 °F 8.6 °F 35% 29.92 in 10.0 mi SE 3.5 mph - N/A   Mostly Cloudy
6:15 PM 33.8 °F 30.8 °F 8.6 °F 35% 29.92 in 10.0 mi SE 3.5 mph - N/A   Mostly Cloudy
6:35 PM 33.8 °F 30.8 °F 8.6 °F 35% 29.92 in 10.0 mi ESE 3.5 mph - N/A   Overcast
6:55 PM 33.8 °F 27.7 °F 8.6 °F 35% 29.93 in 10.0 mi ESE 6.9 mph - N/A   Overcast
7:15 PM 33.8 °F 30.8 °F 8.6 °F 35% 29.94 in 10.0 mi ESE 3.5 mph - N/A   Overcast
7:35 PM 33.8 °F 30.8 °F 10.4 °F 38% 29.94 in 10.0 mi ESE 3.5 mph - N/A   Overcast
7:55 PM 32.0 °F - 10.4 °F 41% 29.94 in 10.0 mi Calm Calm - N/A   Overcast
8:15 PM 30.2 °F 26.7 °F 10.4 °F 44% 29.95 in 10.0 mi South 3.5 mph - N/A   Overcast
8:35 PM 30.2 °F - 10.4 °F 44% 29.95 in 10.0 mi Calm Calm - N/A   Overcast
8:55 PM 30.2 °F - 12.2 °F 47% 29.95 in 10.0 mi Calm Calm - N/A   Overcast
9:15 PM 30.2 °F - 10.4 °F 44% 29.96 in 10.0 mi Calm Calm - N/A   Overcast
9:35 PM 30.2 °F - 10.4 °F 44% 29.97 in 10.0 mi Calm Calm - N/A   Overcast
9:55 PM 28.4 °F - 15.8 °F 59% 29.98 in 10.0 mi Calm Calm - N/A   Overcast
10:15 PM 30.2 °F 23.4 °F 15.8 °F 55% 29.98 in 10.0 mi East 6.9 mph - N/A   Overcast
10:35 PM 30.2 °F 24.3 °F 15.8 °F 55% 29.98 in 10.0 mi East 5.8 mph - N/A   Overcast
10:55 PM 30.2 °F 25.4 °F 15.8 °F 55% 29.99 in 10.0 mi East 4.6 mph - N/A   Overcast
11:15 PM 30.2 °F 25.4 °F 15.8 °F 55% 29.99 in 10.0 mi East 4.6 mph - N/A   Overcast
11:35 PM 30.2 °F 24.3 °F 15.8 °F 55% 29.99 in 10.0 mi East 5.8 mph - N/A   Overcast
11:55 PM 30.2 °F 26.7 °F 15.8 °F 55% 30.00 in 10.0 mi East 3.5 mph - N/A   Overcast